KLEX Airport Diagram

We have created a template for each of the higher traffic airports in the vZID airspace. They include KCMH, KCRW, KCVG, KDAY, KIND, KLEX and KSDF. You wil find usefull information including the airport diagram, weather, and specific airport procedures.

KLEX Weather

[Source: ADDS]
METAR
KLEX 211754Z 08011G15KT 10SM CLR 22/12 A3002 RMK AO2 SLP161 T02220122 10222 20122 58021 =
KLEX 211720Z 2118/2218 09012G18KT P6SM FEW060 SCT100 SCT250 FM220600 13012KT P6SM BKN250 WS020/19040KT FM221300 19018G25KT P6SM BKN200
TAF
KLEX 211720Z 2118/2218 09012G18KT P6SM FEW060 SCT100 SCT250 FM220600 13012KT P6SM BKN250 WS020/19040KT FM221300 19018G25KT P6SM BKN200 =

KLEX Operations

Calm wind runway at KLEX is Runway 22, up to and including 10kts.

Default scenery shows Runway 8/26, which crosses Runway 22. When taxiing to Runway 22, clearance to cross Runway 26 not required.

Updated scenery available at www.flightsim.com.

 

JSN Epic template designed by JoomlaShine.com